Flag for U.S.A. Weather past 2 weeks in Provo, Utah, U.S.A.

Now
81 °F

Passing clouds.


Feels Like: 79 °F
Forecast: 62 / 83 °F
Wind: 12 mph from Southeast

Location: Provo Municipal

Current Time: Sep 4, 2015 at 11:26:24 AM

Latest Report: Sep 4, 2015 at 10:55 AM


Visibility: 15 mi

Pressure: 29.91 "Hg (25.54 "Hg at 1386m altitude)

Humidity: 23%

Dew point: 39 °F

Location of ProvoLocation

Historic Weather in Provo — Graph

°F

Provo temperature yesterday

Maximum temperature yesterday: 84 °F (at 2:47 PM)
Minimum temperature yesterday: 61 °F (at 3:35 AM)
Average temperature yesterday: 71 °F

Past Weeks' High & Low Weather Summary

 TemperatureHumidityPressure
High97 °F (Aug 25, 2:54 PM)100% (Aug 24, 6:54 AM)30.29 "Hg (Aug 24, 6:54 AM)
Low52 °F (Aug 21, 5:55 AM)14% (Aug 24, 4:48 PM)29.80 "Hg (Aug 21, 6:49 PM)
Average71 °F43%30.06 "Hg
* Reported Aug 20 9:59 AM — Sep 4 9:47 AM, Provo, Weather by CustomWeather, © 2015

Note: Actual official high and low records may vary slightly from our data, if they occured in-between our weather recording intervals... More about our weather records

Advertising

Provo weather history for previous 24 hours

 ConditionsComfort  
Time TempWeatherWind HumidityBarometerVisibility
9:47 AM
Fri, Sep 4
75 °FScattered clouds.10 mph29%29.92 "Hg15 mi
8:58 AM70 °FScattered clouds.10 mph33%29.93 "Hg15 mi
7:47 AM61 °FPassing clouds.10 mph39%29.92 "Hg15 mi
3:35 AM64 °FClear.3 mph32%29.88 "Hg10 mi
3:15 AM68 °FClear.No wind30%29.88 "Hg10 mi
2:55 AM66 °FClear.No wind32%29.88 "Hg10 mi
2:35 AM66 °FClear.10 mph32%29.88 "Hg10 mi
2:15 AM70 °FClear.12 mph29%29.87 "Hg10 mi
1:55 AM68 °FClear.9 mph30%29.87 "Hg10 mi
1:35 AM70 °FClear.12 mph29%29.87 "Hg10 mi
1:15 AM72 °FClear.10 mph27%29.87 "Hg10 mi
12:55 AM70 °FClear.12 mph29%29.86 "Hg10 mi
12:35 AM68 °FClear.12 mph33%29.86 "Hg10 mi
12:15 AM70 °FClear.13 mph29%29.85 "Hg10 mi
11:55 PM
Thu, Sep 3
70 °FClear.12 mph29%29.85 "Hg10 mi
11:35 PM66 °FClear.8 mph35%29.85 "Hg10 mi
11:15 PM70 °FClear.6 mph29%29.84 "Hg10 mi
10:55 PM72 °FClear.9 mph29%29.84 "Hg10 mi
10:35 PM72 °FClear.12 mph29%29.84 "Hg10 mi
9:55 PM75 °FClear.13 mph34%29.84 "Hg10 mi
9:35 PM79 °FClear.20 mph24%29.83 "Hg10 mi
9:15 PM72 °FClear.16 mph31%29.83 "Hg10 mi
8:55 PM77 °FClear.13 mph30%29.82 "Hg10 mi
7:50 PM79 °FScattered clouds.9 mph28%29.81 "Hg15 mi
6:50 PM81 °FScattered clouds.9 mph34%29.81 "Hg15 mi
5:50 PM81 °FScattered clouds.9 mph30%29.82 "Hg15 mi
4:50 PM84 °FScattered clouds.9 mph19%29.84 "Hg15 mi
3:50 PM82 °FScattered clouds.12 mph20%29.87 "Hg15 mi
2:47 PM84 °FScattered clouds.12 mph23%29.89 "Hg15 mi
1:59 PM82 °FScattered clouds.12 mph25%29.91 "Hg15 mi
12:58 PM81 °FPartly sunny.12 mph28%29.94 "Hg15 mi
11:48 AM81 °FBroken clouds.8 mph26%29.98 "Hg15 mi
Weather by CustomWeather, © 2015

See weather overviewHow to use our weather pages